[[[{"header":{"parameterUnit":"kt","parameterCategory":2,"dx":1,"dy":1,"la1":30.253999710083008,"la2":30.299108505249023,"lo1":-89.0895004272461,"lo2":-89.04439544677734,"nx":28,"ny":28,"refTime":"2022-09-21T21:00:00:Z","depth":0,"parameterNumber":1,"parameterNumberName":"U-component_of_WINDS"},"data":[4.8677,4.8876,4.8838,4.905,4.9051,4.9191,4.9229,4.9275,4.9302,4.9468,4.9557,4.9541,4.9557,4.9657,4.9755,4.9746,4.9793,4.9893,4.9866,4.9448,4.9387,4.933,4.928,4.9902,4.9903,5.0306,5.031,5.0313,4.8384,4.8387,4.8486,4.8555,4.8641,4.8523,4.857,4.8651,4.8779,4.8814,4.8897,4.9041,4.915,4.9129,4.9229,4.9327,4.9279,4.9357,4.9351,4.9357,4.8907,4.8854,4.9396,4.9395,4.9395,4.9395,4.9395,4.9395,4.784,4.796,4.7977,4.8083,4.8107,4.8155,4.8264,4.8238,4.8336,4.843,4.8365,4.851,4.8539,4.8638,4.8662,4.8778,4.8684,4.8759,4.8779,4.8801,4.8832,4.8264,4.8792,4.8791,4.8789,4.8788,4.8787,0,4.743,4.7389,4.7477,4.7558,4.7632,4.769,4.7737,4.7803,4.7701,4.7787,4.7907,4.7971,4.8098,4.8211,4.8293,4.8301,4.819,4.8172,4.8225,4.8261,4.8286,4.8281,4.7554,4.8157,4.8152,4.8148,4.8145,4.8142,4.6883,4.7024,4.702,4.7089,4.7102,4.7215,4.7274,4.7171,4.724,4.7284,4.7396,4.7504,4.7585,4.7789,4.7759,4.7855,4.7802,4.8037,4.7815,4.7846,4.7812,4.7806,4.7823,4.8083,4.8091,4.8097,4.8102,0,4.658,4.6509,4.6714,4.6694,4.6694,4.685,4.6835,4.695,4.691,4.7065,4.7095,4.7034,4.7155,4.7085,4.7209,4.7169,4.7437,4.7379,4.7428,4.7414,4.7622,4.7606,4.8296,4.8384,4.7733,4.7739,4.7744,0,4.6086,4.6276,4.6159,4.6282,4.6491,4.6379,4.659,4.6575,4.6591,4.6711,4.6567,4.6684,4.6573,4.6682,4.6624,4.6828,4.6849,4.6833,4.6816,4.6848,4.6851,4.6887,4.6859,4.6764,4.676,4.6757,4.6755,0,4.5622,4.5777,4.5975,4.5999,4.5995,4.6093,4.6096,4.6111,4.6169,4.6234,4.6272,4.6356,4.6404,4.6474,4.6397,4.625,4.6643,4.6424,4.6626,4.6629,4.6719,4.6715,4.7342,4.675,4.6749,4.6748,4.6747,0,4.5212,4.5273,4.5568,4.5562,4.5607,4.5737,4.5809,4.5903,4.593,4.5899,4.5949,4.5844,4.601,4.58,4.6031,4.5861,4.5919,4.5916,4.5929,4.5942,4.5709,4.6078,4.6678,4.6741,4.5953,4.5947,4.5941,0,4.4703,4.4978,4.4881,4.5165,4.5281,4.5109,4.5252,4.5277,4.5246,4.5345,4.5311,4.5424,4.5251,4.5276,4.5399,4.5372,4.5592,4.5339,4.5493,4.55,4.5495,4.6045,4.6154,4.6554,4.5855,4.5864,4.587,0,4.4298,4.4283,4.434,4.4363,4.4372,4.4468,4.4632,4.4715,4.4786,4.4827,4.4966,4.5119,4.4997,4.5039,4.4961,4.5094,4.544,4.4944,4.4943,4.504,4.5803,4.5906,4.5974,4.5359,4.537,4.5378,4.5802,0,4.3705,4.3829,4.3977,4.4027,4.4087,4.4257,4.4171,4.4248,4.4164,4.4126,4.4325,4.4324,4.4412,4.4465,4.4385,4.4708,4.4643,4.451,4.4301,4.4661,4.4799,4.4855,4.4103,4.4096,4.409,4.4086,0,0,4.3238,4.3412,4.3296,4.3446,4.349,4.3304,4.3494,4.3516,4.3565,4.3602,4.3484,4.3702,4.3706,4.3957,4.4062,4.4096,4.4149,4.4024,4.4489,4.4534,4.4576,4.4726,4.4785,4.4076,4.4074,4.4072,4.407,0,4.3002,4.3,4.3185,4.3201,4.322,4.3166,4.3212,4.3198,4.3181,4.337,4.3217,4.3326,4.35,4.3527,4.3563,4.3991,4.3872,4.4024,4.4284,4.4435,4.4488,4.4534,4.4692,4.475,4.4056,4.4057,4.4058,0,4.259,4.2576,4.2654,4.2739,4.2749,4.2872,4.263,4.2768,4.286,4.265,4.2841,4.283,4.2856,4.3101,4.3207,4.3103,4.3625,4.3442,4.3475,4.3486,4.3629,4.3693,4.3749,4.3005,4.3002,4.2999,0,0,4.2399,4.251,4.2461,4.2681,4.2698,4.262,4.2675,4.2595,4.2618,4.2628,4.2609,4.264,4.274,4.2809,4.2898,4.3178,4.3178,4.3316,4.3366,4.3407,4.344,4.3594,4.3657,4.2987,4.2986,4.2986,0,0,4.2308,4.2257,4.2166,4.2409,4.2435,4.2403,4.2543,4.2432,4.2501,4.2472,4.2346,4.2349,4.2575,4.257,4.2412,4.2823,4.2618,4.2653,4.2818,4.288,4.2928,4.2927,4.2166,0,0,0,0,0,4.2019,4.2262,4.218,4.2207,4.2312,4.2448,4.2461,4.236,4.2217,4.2332,4.2298,4.2163,4.2459,4.2317,4.2348,4.2526,4.2825,4.2853,4.2881,4.3158,4.3223,4.3278,0,0,0,0,0,0,4.2028,4.2062,4.2173,4.2153,4.2175,4.2438,4.2175,4.2154,4.2203,4.2174,4.2174,4.2163,4.2082,4.2294,4.2324,4.2495,4.2156,4.2836,4.286,4.2882,4.3181,4.3234,4.328,0,0,0,0,0,4.2036,4.2062,4.2256,4.2148,4.2168,4.2092,4.2164,4.2145,4.2181,4.2128,4.2112,4.21,4.2089,4.2108,4.2311,4.2484,4.2134,4.2146,4.2852,4.2871,4.2888,4.3207,0,0,0,0,0,0,4.2041,4.2047,4.2257,4.226,4.2046,4.2076,4.2076,4.2138,4.2129,4.2117,4.2047,4.2025,4.2098,4.211,4.2125,4.2486,4.2117,4.2129,4.2136,4.2866,4.2881,4.2895,0,0,0,0,0,0,4.2032,4.2051,4.2259,4.2136,4.2123,4.2061,4.2062,4.2219,4.2132,4.2049,4.203,4.2038,4.2077,4.2114,4.2125,4.2374,4.2103,4.2115,4.2122,4.2127,4.2879,4.2891,0,0,0,0,0,0,4.2038,4.2054,4.2134,4.2125,4.2113,4.2133,4.2198,4.2313,4.2023,4.2053,4.1994,4.1981,4.2085,4.2093,4.2125,4.2371,4.2373,4.2104,4.2111,4.2117,4.212,0,0,0,0,0,0,0,4.2043,4.1959,4.2243,4.2116,4.2105,4.2282,4.2283,4.2284,4.202,4.2009,4.1997,4.1987,4.204,4.2052,4.2064,4.2369,0,0,4.2103,4.2108,0,0,0,0,0,0,0,0,4.195,4.1957,4.2243,4.2243,4.2244,4.2282,4.2283,4.2284,4.2018,4.2009,4.2,4.1991,4.2043,4.2053,4.2063,0,0,0,0,0,0,0,0,0,0,0,0,0,0,0,4.2243,4.2243,0,4.2283,4.2283,4.2283,4.2017,4.2009,4.2002,4.1994,4.2046,4.2054,4.2062,0,0,0,0,0,0,0,0,0,0,0,0,0,0,0,0,0,0,0,0,0,0,0,0,0,0,0,0,0,0,0,0,0,0,0,0,0,0,0,0,0,0,0,0,0,0,0,0,0,0,0,0,0,0,0,0,0,0,0,0,0,0,0,0,0,0,0,0,0]}],[{"header":{"parameterUnit":"kt","parameterCategory":2,"dx":1,"dy":1,"la1":30.253999710083008,"la2":30.299108505249023,"lo1":-89.0895004272461,"lo2":-89.04439544677734,"nx":28,"ny":28,"refTime":"2022-09-21T21:00:00:Z","depth":0,"parameterNumber":2,"parameterNumberName":"V-component_of_WINDS"},"data":[-4.0945,-4.0966,-4.0998,-4.1036,-4.1071,-4.1102,-4.1123,-4.1153,-4.1185,-4.1223,-4.1251,-4.1284,-4.1327,-4.1366,-4.1396,-4.1409,-4.1419,-4.1403,-4.1421,-4.1466,-4.1474,-4.1481,-4.1479,-4.1406,-4.1405,-4.137,-4.1369,-4.1369,-4.0973,-4.1009,-4.1039,-4.1089,-4.1115,-4.115,-4.1192,-4.121,-4.1236,-4.1276,-4.1305,-4.1341,-4.1373,-4.1422,-4.1458,-4.1466,-4.1483,-4.1473,-4.1471,-4.1477,-4.1526,-4.1523,-4.1459,-4.1459,-4.1459,-4.1459,-4.1459,-4.1459,-4.1034,-4.1045,-4.1095,-4.1128,-4.1163,-4.1196,-4.1211,-4.1253,-4.1281,-4.1324,-4.1356,-4.1386,-4.143,-4.1488,-4.1515,-4.1537,-4.1553,-4.1551,-4.1551,-4.1548,-4.1542,-4.1585,-4.1545,-4.1545,-4.1545,-4.1546,-4.1546,0,-4.1087,-4.1114,-4.1145,-4.1186,-4.1212,-4.1246,-4.1282,-4.1293,-4.1358,-4.1379,-4.1411,-4.1435,-4.148,-4.1513,-4.1553,-4.1582,-4.1616,-4.1625,-4.1623,-4.1606,-4.1586,-4.1595,-4.1672,-4.1625,-4.1625,-4.1626,-4.1626,-4.1627,-4.1149,-4.1159,-4.1227,-4.1245,-4.1273,-4.13,-4.1323,-4.138,-4.1401,-4.1453,-4.1459,-4.1494,-4.1524,-4.1568,-4.1614,-4.1648,-4.1664,-4.1643,-4.1669,-4.1654,-4.1661,-4.1659,-4.1659,-4.1635,-4.1634,-4.1633,-4.1633,0,-4.1179,-4.1233,-4.1259,-4.1326,-4.1343,-4.135,-4.1406,-4.1419,-4.1458,-4.1481,-4.149,-4.1549,-4.1579,-4.1629,-4.1673,-4.1697,-4.1706,-4.1723,-4.1691,-4.1696,-4.168,-4.168,-4.1624,-4.1619,-4.1698,-4.1697,-4.1697,0,-4.1251,-4.1263,-4.1342,-4.1354,-4.1368,-4.1426,-4.1438,-4.1472,-4.1513,-4.1532,-4.1582,-4.1598,-4.166,-4.1683,-4.172,-4.1736,-4.1745,-4.1764,-4.1773,-4.1758,-4.1755,-4.1767,-4.1769,-4.1797,-4.1797,-4.1797,-4.1797,0,-4.1292,-4.1349,-4.137,-4.1391,-4.1463,-4.1471,-4.15,-4.1547,-4.1568,-4.1603,-4.1617,-4.1654,-4.1673,-4.1699,-4.1746,-4.1762,-4.1768,-4.18,-4.1787,-4.1786,-4.1784,-4.1783,-4.1723,-4.1797,-4.1798,-4.1798,-4.1798,0,-4.1358,-4.1396,-4.1419,-4.1479,-4.1491,-4.1505,-4.1546,-4.157,-4.1614,-4.1639,-4.1667,-4.1706,-4.1726,-4.1754,-4.1781,-4.1789,-4.1804,-4.1825,-4.1825,-4.1828,-4.1856,-4.1813,-4.1754,-4.1748,-4.1833,-4.1833,-4.1834,0,-4.1389,-4.1428,-4.1478,-4.1499,-4.1523,-4.1579,-4.1595,-4.1633,-4.1668,-4.1692,-4.173,-4.1757,-4.1789,-4.1804,-4.1811,-4.185,-4.1841,-4.1853,-4.1883,-4.1884,-4.1868,-4.1815,-4.1792,-4.1762,-4.1838,-4.1838,-4.1837,0,-4.142,-4.1509,-4.1509,-4.1535,-4.1598,-4.1619,-4.1637,-4.1678,-4.1691,-4.173,-4.1745,-4.1785,-4.181,-4.1834,-4.1869,-4.1874,-4.1849,-4.19,-4.1901,-4.1887,-4.1845,-4.1824,-4.1819,-4.1871,-4.187,-4.187,-4.1841,0,-4.1504,-4.153,-4.1534,-4.1591,-4.1616,-4.1632,-4.1688,-4.1706,-4.1738,-4.1775,-4.1799,-4.1843,-4.1882,-4.1891,-4.1922,-4.1918,-4.1926,-4.1952,-4.198,-4.1946,-4.1937,-4.1934,-4.1988,-4.199,-4.1991,-4.1991,0,0,-4.1519,-4.1559,-4.1614,-4.1635,-4.1659,-4.1717,-4.1729,-4.1758,-4.1816,-4.183,-4.1848,-4.1909,-4.1944,-4.1967,-4.1961,-4.1977,-4.198,-4.199,-4.1962,-4.1959,-4.1956,-4.1946,-4.1941,-4.1993,-4.1994,-4.1994,-4.1994,0,-4.1561,-4.16,-4.1612,-4.1646,-4.1699,-4.1737,-4.174,-4.1801,-4.1825,-4.185,-4.1895,-4.1916,-4.1964,-4.1995,-4.2016,-4.199,-4.2021,-4.1998,-4.1965,-4.197,-4.1965,-4.1961,-4.195,-4.1946,-4.1997,-4.1996,-4.1996,0,-4.16,-4.1647,-4.1659,-4.1718,-4.1753,-4.1776,-4.1821,-4.1845,-4.1862,-4.1921,-4.1945,-4.1977,-4.2022,-4.2038,-4.2047,-4.2062,-4.2054,-4.2067,-4.2062,-4.2064,-4.2071,-4.2066,-4.206,-4.2128,-4.2128,-4.2128,0,0,-4.1628,-4.1654,-4.1721,-4.1731,-4.175,-4.1808,-4.1826,-4.1861,-4.1902,-4.1919,-4.196,-4.1997,-4.2026,-4.2043,-4.2072,-4.2082,-4.2095,-4.2081,-4.2075,-4.207,-4.2068,-4.2074,-4.2068,-4.2129,-4.2129,-4.2129,0,0,-4.1641,-4.172,-4.1746,-4.1766,-4.1805,-4.187,-4.1873,-4.1906,-4.1939,-4.1943,-4.2,-4.2012,-4.2028,-4.2056,-4.2063,-4.2083,-4.211,-4.211,-4.2063,-4.2056,-4.205,-4.2042,-4.2112,0,0,0,0,0,-4.1713,-4.1711,-4.1734,-4.1746,-4.182,-4.1858,-4.1867,-4.1916,-4.1934,-4.1936,-4.1975,-4.2008,-4.2071,-4.2078,-4.2088,-4.208,-4.2141,-4.2139,-4.2137,-4.2079,-4.2071,-4.2065,0,0,0,0,0,0,-4.1718,-4.1732,-4.1734,-4.1799,-4.1816,-4.1858,-4.19,-4.1914,-4.1936,-4.1942,-4.2,-4.201,-4.2051,-4.2077,-4.2084,-4.2076,-4.211,-4.214,-4.2138,-4.2137,-4.2077,-4.207,-4.2064,0,0,0,0,0,-4.1722,-4.1734,-4.1841,-4.1799,-4.1814,-4.1878,-4.1901,-4.1912,-4.193,-4.1991,-4.2003,-4.1965,-4.2049,-4.2059,-4.2081,-4.2071,-4.2105,-4.2107,-4.2139,-4.2138,-4.2136,-4.2073,0,0,0,0,0,0,-4.1726,-4.1744,-4.1845,-4.1851,-4.1804,-4.1877,-4.189,-4.1911,-4.1979,-4.1991,-4.1959,-4.1963,-4.2048,-4.2056,-4.2063,-4.2067,-4.2101,-4.2103,-4.2105,-4.2138,-4.2137,-4.2136,0,0,0,0,0,0,-4.1738,-4.1749,-4.1848,-4.1851,-4.1859,-4.1875,-4.1887,-4.1912,-4.1979,-4.1943,-4.1948,-4.196,-4.2036,-4.2054,-4.206,-4.2098,-4.2097,-4.21,-4.2102,-4.2103,-4.2137,-4.2136,0,0,0,0,0,0,-4.1743,-4.1753,-4.185,-4.1855,-4.1862,-4.1936,-4.1898,-4.1971,-4.1984,-4.1939,-4.1987,-4.1988,-4.2033,-4.204,-4.2057,-4.2092,-4.2096,-4.2097,-4.2099,-4.2101,-4.2101,0,0,0,0,0,0,0,-4.1748,-4.1675,-4.1808,-4.1859,-4.1865,-4.1909,-4.191,-4.1912,-4.1984,-4.1985,-4.1986,-4.1987,-4.2082,-4.2085,-4.2088,-4.2088,0,0,-4.2097,-4.2099,0,0,0,0,0,0,0,0,-4.1672,-4.1674,-4.1808,-4.1809,-4.1811,-4.1909,-4.191,-4.1912,-4.1985,-4.1985,-4.1986,-4.1987,-4.2083,-4.2085,-4.2088,0,0,0,0,0,0,0,0,0,0,0,0,0,0,0,-4.1808,-4.1809,0,-4.1909,-4.191,-4.1912,-4.1985,-4.1985,-4.1986,-4.1987,-4.2084,-4.2086,-4.2088,0,0,0,0,0,0,0,0,0,0,0,0,0,0,0,0,0,0,0,0,0,0,0,0,0,0,0,0,0,0,0,0,0,0,0,0,0,0,0,0,0,0,0,0,0,0,0,0,0,0,0,0,0,0,0,0,0,0,0,0,0,0,0,0,0,0,0,0,0]}]]]